Location: Hohenfelde
(53.8441°N, 9.6220°E)
Time: 12:14:33
(UTC+00:00)

Cosmos 2278 - Pass Details

Date: 14 July 2020
Orbit: 838 x 854 km, 71.1° (Epoch: 13 August)

Event Time Altitude Azimuth Distance (km) Brightness Sun altitude
Rises 01:58:19 0° 326° (NW) 3,435 7.2 -7.8°
Reaches altitude 10° 02:00:49 10° 322° (NW) 2,496 6.4 -7.6°
Maximum altitude 02:06:23 53° 247° (WSW) 1,040 3.9 -7.1°
Drops below altitude 10° 02:11:54 10° 171° (S) 2,480 5.7 -6.6°
Sets 02:14:23 0° 167° (SSE) 3,411 6.5 -6.4°
